TimeAKDT,TemperatureF,Dew PointF,Humidity,Sea Level PressureIn,VisibilityMPH,Wind Direction,Wind SpeedMPH,Gust SpeedMPH,PrecipitationIn,Events,Conditions,WindDirDegrees,DateUTC
2:56 AM,59.0,48.2,67,30.11,10.0,West,3.5,-,N/A,,Unknown,270,2013-07-23 10:56:00
3:16 AM,57.2,48.2,72,30.12,10.0,Calm,Calm,-,N/A,,Unknown,0,2013-07-23 11:16:00
3:36 AM,55.4,50.0,82,30.12,10.0,NE,3.5,-,N/A,,Unknown,50,2013-07-23 11:36:00
3:56 AM,57.2,48.2,72,30.12,10.0,Calm,Calm,-,N/A,,Unknown,0,2013-07-23 11:56:00
4:16 AM,55.4,50.0,82,30.12,10.0,Calm,Calm,-,N/A,,Unknown,0,2013-07-23 12:16:00
4:36 AM,55.4,48.2,77,30.12,10.0,Calm,Calm,-,N/A,,Unknown,0,2013-07-23 12:36:00
5:36 AM,55.4,48.2,77,30.12,10.0,Calm,Calm,-,N/A,,Unknown,0,2013-07-23 13:36:00
5:56 AM,53.6,48.2,82,30.12,10.0,Calm,Calm,-,N/A,,Unknown,0,2013-07-23 13:56:00
6:16 AM,55.4,48.2,77,30.12,10.0,Calm,Calm,-,N/A,,Unknown,0,2013-07-23 14:16:00
6:36 AM,53.6,48.2,82,30.12,10.0,Calm,Calm,-,N/A,,Unknown,0,2013-07-23 14:36:00
6:56 AM,55.4,48.2,77,30.12,10.0,Calm,Calm,-,N/A,,Unknown,0,2013-07-23 14:56:00
7:16 AM,55.4,50.0,82,30.12,10.0,Calm,Calm,-,N/A,,Unknown,0,2013-07-23 15:16:00
7:36 AM,55.4,48.2,77,30.12,10.0,Calm,Calm,-,N/A,,Unknown,0,2013-07-23 15:36:00
7:56 AM,55.4,48.2,77,30.12,10.0,Calm,Calm,-,N/A,,Unknown,0,2013-07-23 15:56:00
8:16 AM,57.2,50.0,77,30.12,10.0,Calm,Calm,-,N/A,,Unknown,0,2013-07-23 16:16:00
8:36 AM,55.4,50.0,82,30.12,10.0,Calm,Calm,-,N/A,,Unknown,0,2013-07-23 16:36:00
8:56 AM,59.0,50.0,72,30.12,10.0,Calm,Calm,-,N/A,,Unknown,0,2013-07-23 16:56:00
9:16 AM,60.8,50.0,68,30.11,10.0,Calm,Calm,-,N/A,,Unknown,0,2013-07-23 17:16:00
9:36 AM,62.6,50.0,63,30.11,10.0,Calm,Calm,-,N/A,,Unknown,0,2013-07-23 17:36:00
9:56 AM,62.6,51.8,68,30.11,10.0,NNW,3.5,-,N/A,,Unknown,340,2013-07-23 17:56:00
10:16 AM,62.6,48.2,59,30.11,10.0,NNE,4.6,-,N/A,,Unknown,30,2013-07-23 18:16:00
10:36 AM,64.4,50.0,59,30.10,10.0,NNE,4.6,-,N/A,,Unknown,20,2013-07-23 18:36:00
10:56 AM,64.4,48.2,56,30.10,10.0,NNE,3.5,-,N/A,,Unknown,20,2013-07-23 18:56:00
11:16 AM,66.2,48.2,52,30.10,10.0,North,4.6,-,N/A,,Unknown,10,2013-07-23 19:16:00
11:36 AM,66.2,48.2,52,30.10,10.0,Calm,Calm,-,N/A,,Unknown,0,2013-07-23 19:36:00
11:56 AM,68.0,46.4,46,30.09,10.0,Calm,Calm,-,N/A,,Unknown,0,2013-07-23 19:56:00
12:16 PM,69.8,44.6,40,30.09,10.0,Calm,Calm,-,N/A,,Unknown,0,2013-07-23 20:16:00
12:36 PM,69.8,44.6,40,30.09,10.0,Calm,Calm,-,N/A,,Unknown,0,2013-07-23 20:36:00
12:56 PM,69.8,46.4,43,30.08,10.0,WSW,3.5,-,N/A,,Unknown,250,2013-07-23 20:56:00
1:16 PM,71.6,46.4,41,30.08,10.0,West,3.5,-,N/A,,Unknown,280,2013-07-23 21:16:00
1:36 PM,71.6,44.6,38,30.08,10.0,WNW,3.5,-,N/A,,Unknown,290,2013-07-23 21:36:00
1:56 PM,73.4,44.6,36,30.08,10.0,West,3.5,-,N/A,,Unknown,270,2013-07-23 21:56:00
2:16 PM,73.4,44.6,36,30.07,10.0,West,3.5,-,N/A,,Unknown,270,2013-07-23 22:16:00
2:36 PM,73.4,48.2,41,30.07,10.0,West,4.6,-,N/A,,Unknown,270,2013-07-23 22:36:00
2:56 PM,73.4,51.8,47,30.07,10.0,West,6.9,-,N/A,,Unknown,260,2013-07-23 22:56:00
3:16 PM,75.2,53.6,47,30.06,10.0,West,8.1,-,N/A,,Unknown,260,2013-07-23 23:16:00
3:36 PM,75.2,53.6,47,30.05,10.0,West,6.9,-,N/A,,Unknown,260,2013-07-23 23:36:00
3:56 PM,75.2,57.2,53,30.05,10.0,West,3.5,-,N/A,,Unknown,260,2013-07-23 23:56:00
4:16 PM,75.2,55.4,50,30.05,10.0,West,4.6,-,N/A,,Unknown,280,2013-07-24 00:16:00
4:36 PM,77.0,57.2,50,30.04,10.0,West,5.8,-,N/A,,Unknown,280,2013-07-24 00:36:00
4:56 PM,75.2,55.4,50,30.04,10.0,West,5.8,-,N/A,,Unknown,270,2013-07-24 00:56:00
5:16 PM,77.0,55.4,47,30.04,10.0,West,4.6,-,N/A,,Unknown,270,2013-07-24 01:16:00
5:36 PM,77.0,57.2,50,30.03,10.0,West,4.6,-,N/A,,Unknown,270,2013-07-24 01:36:00
5:56 PM,78.8,55.4,44,30.03,10.0,West,8.1,-,N/A,,Unknown,260,2013-07-24 01:56:00
6:16 PM,78.8,55.4,44,30.02,10.0,West,5.8,-,N/A,,Unknown,270,2013-07-24 02:16:00
6:36 PM,75.2,57.2,53,30.02,10.0,West,5.8,-,N/A,,Unknown,260,2013-07-24 02:36:00
6:56 PM,77.0,53.6,44,30.02,10.0,WSW,4.6,-,N/A,,Unknown,250,2013-07-24 02:56:00
7:16 PM,75.2,53.6,47,30.02,10.0,West,6.9,-,N/A,,Unknown,260,2013-07-24 03:16:00
7:36 PM,75.2,53.6,47,30.02,10.0,West,6.9,-,N/A,,Unknown,260,2013-07-24 03:36:00
7:56 PM,73.4,51.8,47,30.02,10.0,WSW,5.8,-,N/A,,Unknown,250,2013-07-24 03:56:00
8:16 PM,77.0,46.4,34,30.02,10.0,SW,5.8,-,N/A,,Unknown,230,2013-07-24 04:16:00
8:36 PM,75.2,46.4,36,30.02,10.0,WSW,4.6,-,N/A,,Unknown,240,2013-07-24 04:36:00
8:56 PM,75.2,48.2,38,30.02,10.0,WSW,3.5,-,N/A,,Unknown,240,2013-07-24 04:56:00
9:16 PM,75.2,46.4,36,30.02,10.0,SW,4.6,-,N/A,,Unknown,220,2013-07-24 05:16:00
9:36 PM,75.2,46.4,36,30.03,10.0,SW,5.8,-,N/A,,Unknown,220,2013-07-24 05:36:00
9:56 PM,75.2,50.0,41,30.03,10.0,SW,4.6,-,N/A,,Unknown,230,2013-07-24 05:56:00
10:16 PM,73.4,50.0,44,30.03,10.0,SW,4.6,-,N/A,,Unknown,230,2013-07-24 06:16:00
10:36 PM,73.4,50.0,44,30.03,10.0,SSW,4.6,-,N/A,,Unknown,200,2013-07-24 06:36:00
10:56 PM,71.6,51.8,50,30.03,10.0,South,4.6,-,N/A,,Unknown,190,2013-07-24 06:56:00
11:16 PM,71.6,50.0,46,30.04,10.0,NE,3.5,-,N/A,,Unknown,40,2013-07-24 07:16:00
11:36 PM,66.2,51.8,60,30.04,10.0,NE,4.6,-,N/A,,Unknown,50,2013-07-24 07:36:00
11:56 PM,66.2,51.8,60,30.04,10.0,NE,3.5,-,N/A,,Unknown,40,2013-07-24 07:56:00